Theta_e
313 313 314 313 313 312 313 313 313 313 313 314 314 315 316 314 311 311 313 313 313 312 310 309 309 309 310 312 315 317 323 323 319 318 318 317 314 316 316 316 317 315 316 319 319 319 319
312 313 313 314 313 312 312 312 313 313 313 313 315 315 316 316 312 311 312 313 313 313 313 312 312 312 310 312 316 322 327 324 318 317 318 316 315 318 319 317 316 317 318 319 320 321 319
314 314 313 313 312 311 310 311 312 313 313 313 315 315 315 316 312 312 312 314 314 313 313 313 313 313 311 314 316 326 326 319 314 314 315 313 318 320 319 317 319 319 319 316 318 320 318
313 311 310 311 310 309 309 309 310 312 313 314 314 315 315 314 313 312 313 315 314 314 313 313 313 312 313 315 315 326 322 321 316 313 313 315 318 320 319 319 318 317 316 317 316 318 320
312 310 308 307 307 307 306 307 308 309 312 314 314 314 313 313 314 311 316 316 316 318 315 313 312 312 314 316 316 319 321 323 318 320 321 320 320 319 318 315 314 312 316 317 318 317 319
308 306 306 305 305 306 305 305 306 307 309 313 314 313 312 313 312 313 316 318 318 317 317 315 313 317 319 320 322 318 319 321 320 320 320 319 318 314 311 313 314 316 317 318 318 318 319
306 304 304 304 304 305 305 305 305 306 308 311 314 313 311 311 311 316 316 319 320 318 318 319 319 318 319 320 321 321 321 321 320 320 317 317 314 313 314 314 315 318 319 318 318 319 320
305 304 303 304 304 304 305 305 306 306 307 309 314 314 312 312 315 316 317 319 321 322 320 320 320 319 319 319 319 323 321 321 319 318 316 315 314 314 315 316 317 317 318 317 317 319 318
304 303 303 303 304 304 305 305 306 307 308 308 312 315 316 318 318 319 320 320 320 320 318 318 319 319 320 319 319 321 322 321 320 318 316 315 316 316 316 316 317 316 317 317 317 319 318
303 303 303 303 303 304 305 305 306 307 308 308 310 315 315 319 321 320 319 320 320 319 314 318 320 321 320 323 322 323 323 320 321 320 318 317 317 317 316 317 316 317 316 318 319 319 319
302 302 302 303 303 304 305 305 306 307 308 309 310 315 314 318 321 318 318 320 320 320 322 324 319 320 320 321 323 323 324 321 320 320 319 320 320 319 318 317 317 317 318 317 318 317 319
302 301 302 302 303 304 304 306 306 307 309 309 311 314 315 320 321 318 317 320 321 322 329 324 323 323 320 321 322 321 322 322 323 320 320 319 321 320 319 320 318 319 320 319 316 315 318
301 301 302 302 303 303 304 305 306 307 309 310 311 315 315 318 317 315 319 323 320 323 323 324 324 323 322 321 320 321 318 313 313 317 320 321 321 320 322 321 321 320 318 319 321 320 322
300 301 301 302 302 303 304 305 306 307 309 310 315 317 316 315 315 315 320 317 323 324 321 322 322 323 321 317 320 317 316 312 311 311 317 320 322 321 321 320 322 317 317 319 322 321 323
300 300 301 301 302 303 304 305 306 307 309 315 319 319 316 317 317 317 319 317 311 313 313 318 321 321 318 316 316 318 308 307 307 308 314 319 322 321 322 322 320 322 319 317 319 319 319
299 299 300 301 302 302 303 304 306 307 309 318 321 317 315 314 313 315 315 314 310 308 312 316 317 313 314 311 314 316 309 305 304 308 311 311 316 320 322 323 322 321 320 323 317 322 322
299 299 300 300 301 301 302 303 305 307 312 319 320 316 312 314 315 314 309 309 307 307 310 311 309 308 308 308 311 308 307 305 303 307 307 304 312 319 320 322 321 322 321 320 320 318 326
298 299 299 299 300 301 301 302 304 306 313 316 314 306 309 314 310 306 305 306 306 305 307 306 307 305 307 306 310 308 307 305 303 305 305 305 306 315 319 315 315 318 317 316 322 322 319
298 298 298 299 300 300 301 302 303 305 310 312 308 307 308 313 305 304 304 305 305 305 304 306 305 304 304 303 305 306 304 304 304 303 303 303 302 306 311 316 310 310 310 310 316 317 322
297 297 298 298 300 300 300 301 302 304 310 312 309 303 305 306 305 303 302 303 305 305 304 304 304 303 303 303 303 303 304 305 304 303 304 303 303 311 308 310 309 307 308 307 314 318 321
297 297 297 298 299 300 300 301 302 306 307 309 306 304 303 299 301 302 303 303 304 304 304 304 304 303 302 303 303 304 304 304 303 303 302 300 300 302 302 303 304 304 304 304 309 313 319
296 296 297 297 298 299 300 300 302 307 307 307 306 303 303 301 304 302 302 303 305 304 304 304 304 304 303 303 303 303 303 302 302 301 301 298 300 302 303 304 304 306 305 307 308 310 318
296 296 296 297 298 299 300 300 301 303 306 305 304 304 304 303 302 302 303 304 305 304 305 305 304 303 303 303 303 304 304 303 302 301 300 299 300 302 305 305 304 304 303 306 308 321 321
296 296 296 297 297 299 300 300 300 301 302 306 306 306 305 301 303 303 305 304 304 305 304 304 304 303 303 304 303 303 302 301 302 302 300 302 304 303 301 303 304 303 306 310 312 316 318
295 296 296 296 297 299 300 300 300 301 303 303 305 305 305 301 303 305 305 304 304 305 304 304 304 304 303 302 300 300 299 300 302 304 303 304 306 307 300 302 303 305 309 309 311 312 313
295 295 296 297 297 298 299 299 300 300 302 303 304 306 305 304 304 305 305 305 302 301 302 303 304 303 303 299 299 302 301 303 302 303 302 303 306 308 306 305 306 309 308 308 308 311 311
295 295 297 298 298 298 299 299 299 300 302 302 303 304 305 306 306 306 305 304 305 304 300 303 304 303 302 298 301 301 302 301 302 303 304 302 306 307 308 309 307 308 307 307 312 308 309
295 295 296 298 298 299 299 299 299 301 301 302 302 303 305 306 306 306 306 306 306 306 300 304 301 303 301 299 300 300 301 300 300 301 303 303 304 304 305 307 308 307 307 308 308 307 307
295 295 296 297 298 298 299 299 299 301 302 302 302 305 307 307 306 306 306 306 306 307 306 304 303 303 303 302 298 299 299 298 299 301 301 303 305 307 307 306 305 306 306 306 305 306 306
Wind_Speed
19 19 19 20 19 19 18 18 19 19 19 18 15 11 9 8 7 6 6 6 6 7 7 7 7 8 7 6 10 7 4 2 6 12 12 9 9 4 2 3 2 5 6 11 13 18 12
19 19 19 19 20 20 19 19 19 20 20 19 16 12 9 7 7 6 5 5 5 6 6 6 7 8 8 5 4 2 0 4 7 11 12 13 8 5 4 2 4 3 7 15 10 21 13
19 19 19 19 20 20 21 20 20 20 21 20 16 13 10 7 6 5 5 4 4 4 5 5 6 8 12 18 5 5 1 3 5 7 11 12 10 2 3 8 4 4 5 6 4 8 5
20 20 20 20 20 21 21 21 21 21 21 20 17 14 10 7 5 3 3 3 3 4 4 4 5 7 9 4 13 11 4 2 5 5 7 6 6 9 5 6 6 5 3 3 6 3 4
21 20 20 21 21 21 21 21 21 21 21 20 18 15 11 7 3 2 2 0 2 3 4 4 5 5 10 6 13 15 9 3 6 6 6 5 9 6 2 3 5 7 3 2 8 5 4
22 21 21 21 21 21 21 21 21 21 21 20 18 14 10 5 2 4 3 1 2 4 4 4 7 6 8 2 6 11 11 10 6 4 6 5 4 2 4 4 5 3 2 3 4 5 1
22 22 22 22 22 22 22 21 21 20 20 19 17 13 9 5 5 5 3 1 3 3 6 10 13 17 23 14 8 5 11 15 14 2 3 0 3 7 7 6 6 3 3 5 6 3 3
22 22 23 23 23 23 23 22 21 20 19 18 15 10 7 6 5 4 1 4 8 8 11 19 22 27 27 21 7 6 12 11 8 5 1 4 7 7 5 3 4 5 4 11 8 5 5
23 23 24 24 25 25 24 23 22 20 18 17 12 7 4 6 3 3 8 14 14 10 5 10 9 15 20 13 12 18 13 21 4 6 5 7 7 5 6 5 5 6 5 8 9 10 6
23 24 25 26 26 27 26 25 23 20 17 15 11 5 2 1 3 6 8 12 13 7 5 6 3 1 8 6 5 16 15 18 1 9 6 7 9 11 6 7 7 6 8 12 10 1 6
23 25 26 27 28 28 27 26 23 21 17 14 10 3 2 2 3 8 11 11 9 3 4 4 3 2 8 10 2 2 19 20 10 8 6 10 4 4 5 8 6 10 5 8 11 6 2
24 26 27 28 28 29 28 27 24 21 17 13 8 1 3 3 4 12 14 6 1 5 2 7 5 6 1 4 4 5 8 14 9 5 4 10 6 5 8 9 8 5 4 1 3 3 4
25 26 28 29 29 30 30 28 25 21 17 10 5 3 4 7 10 12 11 1 4 3 7 8 6 8 5 8 9 10 6 16 9 8 4 13 13 6 5 5 8 5 5 4 5 2 7
25 27 28 29 30 31 31 29 26 21 15 6 6 14 11 4 4 10 10 5 6 6 5 4 6 6 6 11 7 12 6 9 15 11 4 3 9 7 4 11 14 7 9 6 6 4 9
25 27 29 30 31 31 32 31 27 21 13 6 15 13 7 3 8 9 4 6 2 6 11 11 5 5 8 7 6 5 9 11 12 14 6 8 6 10 13 5 8 4 4 7 4 4 2
26 27 29 30 31 33 34 33 28 21 11 13 16 10 11 9 8 6 6 6 4 12 9 3 6 12 9 10 9 8 6 13 9 14 10 7 8 9 8 5 5 8 5 6 1 4 8
25 27 29 30 32 33 35 35 30 21 8 13 9 2 20 9 6 15 4 5 5 18 10 8 6 6 6 6 5 6 9 7 16 12 11 6 2 8 9 3 5 5 3 2 3 5 9
25 27 28 30 31 33 35 36 32 22 7 7 5 5 25 6 10 6 4 5 8 17 15 11 6 7 4 6 5 3 5 5 19 18 6 4 4 5 7 22 8 5 9 7 3 7 3
25 26 28 29 31 32 34 37 33 23 11 8 9 10 35 7 5 3 8 8 12 12 10 4 6 6 3 4 3 6 6 6 19 15 8 6 3 7 10 3 6 7 7 13 6 3 6
24 26 27 28 30 32 34 37 36 26 10 9 6 4 15 33 15 8 4 9 4 12 16 9 4 4 4 4 3 3 9 7 24 19 12 3 2 5 9 9 9 16 17 10 4 4 9
23 24 26 27 28 31 33 36 36 32 7 7 9 6 11 4 10 16 16 4 6 5 9 16 7 6 3 5 6 5 3 10 7 8 4 2 4 7 12 13 14 20 25 18 13 11 11
22 23 25 25 26 29 32 33 37 30 19 20 9 9 21 9 14 16 9 4 9 4 6 4 5 1 4 3 4 6 7 2 6 4 2 1 4 5 15 16 18 12 12 15 16 18 13
20 21 23 23 25 28 30 31 32 33 27 36 28 15 9 13 7 5 4 5 7 8 10 12 8 4 3 4 18 25 24 21 14 3 2 0 2 3 10 7 8 9 4 7 12 4 2
18 20 21 22 23 24 27 29 29 29 30 21 18 14 15 4 8 5 8 9 9 13 3 13 15 5 10 20 18 10 8 9 4 1 8 3 3 3 4 2 2 6 8 10 10 9 5
17 18 19 19 20 21 24 27 28 23 23 21 15 17 10 3 5 10 14 7 7 14 7 7 21 13 17 9 5 6 6 6 6 3 4 1 2 3 2 2 7 4 7 10 8 13 14
15 16 18 18 18 19 20 22 25 21 18 19 17 13 9 9 4 3 6 9 2 5 10 3 23 12 12 6 4 3 2 3 5 7 9 9 5 4 3 3 3 6 16 23 17 9 13
14 15 16 18 19 19 18 19 20 20 17 19 17 9 11 12 9 12 7 4 6 9 2 7 14 11 15 4 3 3 3 2 3 5 6 7 3 4 6 3 4 5 26 27 3 6 29
13 14 15 16 18 18 18 16 17 19 15 17 16 10 12 10 9 11 12 13 7 10 1 8 3 8 6 4 3 3 1 3 4 4 5 3 5 3 3 3 4 19 23 4 6 22 23
12 13 13 14 16 18 17 16 16 18 13 16 15 12 15 13 10 11 10 9 14 12 10 4 1 2 1 1 1 1 2 3 3 3 4 4 1 4 4 4 19 29 29 27 26 26 32
Wind_Direction
22 18 17 15 10 6 5 6 4 1 358 351 344 331 313 304 300 289 263 250 251 256 258 261 263 266 271 264 260 288 300 319 216 197 208 202 182 180 163 203 292 173 252 281 293 301 286
19 15 13 14 10 6 3 4 2 359 358 354 349 341 325 309 302 289 261 246 244 259 263 265 265 261 251 256 262 250 347 292 244 219 208 195 190 210 289 260 171 214 271 295 312 305 290
19 16 13 12 10 6 3 3 3 358 357 355 350 344 333 318 301 283 246 241 242 260 270 270 264 257 257 251 249 199 208 296 263 238 206 189 170 301 348 320 332 285 317 339 297 298 267
18 18 15 12 11 6 1 1 3 358 356 355 351 346 336 322 299 273 219 228 246 269 276 277 265 263 257 255 219 192 208 272 183 168 170 177 236 283 248 271 339 2 50 340 290 1 281
17 16 14 12 11 6 360 359 2 358 354 354 353 350 344 331 311 188 173 246 274 271 272 269 265 269 266 260 241 215 211 227 180 191 211 236 297 245 209 77 10 4 246 220 308 218 253
17 14 13 10 9 5 359 358 1 358 353 351 355 356 357 4 105 136 111 77 294 264 261 263 255 293 258 44 340 234 224 219 207 235 272 233 198 81 36 81 232 239 304 295 240 293 48
16 14 12 9 6 4 358 357 358 357 353 350 354 1 12 43 102 113 128 143 351 280 266 244 272 264 279 295 319 231 195 204 224 290 194 16 82 221 228 205 190 279 256 254 261 220 338
14 12 9 8 3 0 358 355 355 354 352 350 351 1 29 63 90 104 338 311 357 315 297 281 263 255 257 264 300 217 204 185 173 208 133 350 252 218 219 181 206 243 269 277 290 250 162
13 9 7 4 2 358 358 354 353 351 351 348 346 353 54 75 54 54 25 10 353 323 293 297 259 250 247 238 231 257 211 205 150 160 186 198 228 145 189 243 222 230 207 268 234 309 213
11 8 5 1 0 357 356 353 351 349 350 345 341 337 265 358 95 10 14 354 350 333 37 285 276 280 170 164 246 234 216 196 181 198 194 236 250 237 211 232 169 264 209 247 273 330 260
11 7 4 1 359 356 355 352 351 347 349 343 336 315 235 158 70 9 336 316 330 314 55 336 54 315 160 175 4 215 201 203 190 200 131 240 212 191 211 227 149 235 232 221 248 239 206
10 6 3 0 359 355 353 352 351 347 350 343 338 280 177 150 14 341 327 326 296 42 0 351 28 352 150 257 347 358 184 210 238 195 245 232 220 184 228 263 172 243 319 84 46 118 235
9 6 2 360 358 355 353 352 353 350 352 347 350 126 105 61 343 329 339 346 44 72 325 355 337 339 40 356 8 15 19 54 32 348 295 271 254 251 219 290 285 165 75 312 306 295 239
8 5 3 0 359 356 354 353 354 353 358 8 100 109 98 75 338 346 352 59 71 346 352 2 329 335 74 9 2 13 65 28 28 4 297 260 289 189 217 205 232 189 158 170 244 251 285
7 5 4 2 1 359 357 355 355 357 2 119 133 129 79 46 334 338 347 56 42 335 327 330 337 21 16 6 359 53 64 14 25 358 358 345 278 327 303 237 156 250 169 207 210 292 323
8 6 5 4 4 3 2 360 358 1 8 152 142 118 33 353 358 4 69 100 98 2 334 17 48 18 41 1 16 20 39 19 359 356 344 350 290 270 299 288 252 189 184 253 41 217 252
9 8 8 8 8 8 7 6 2 11 26 156 150 89 359 10 62 59 80 70 49 358 38 42 23 41 65 8 342 22 21 48 15 357 33 360 246 306 338 292 284 329 287 252 239 164 250
10 10 12 12 12 11 10 8 8 13 61 140 74 56 1 52 53 52 43 6 48 5 38 53 72 57 53 348 28 90 60 35 21 14 2 2 280 280 280 300 327 32 21 47 43 305 261
12 13 15 15 15 14 14 12 12 11 33 83 85 44 32 91 91 53 61 68 82 47 31 62 45 54 360 34 47 63 25 351 15 7 358 349 323 318 304 358 33 40 353 1 291 209 251
15 15 17 18 18 17 17 17 12 21 38 101 90 43 35 57 76 110 108 33 82 44 42 50 19 63 34 46 338 9 2 343 331 323 329 336 287 260 267 296 314 302 311 328 293 285 321
17 18 19 20 20 22 21 21 24 17 43 91 66 62 59 6 30 70 75 29 28 34 62 26 28 52 38 39 343 355 272 312 300 295 336 148 243 247 269 282 299 288 288 290 265 262 260
20 21 22 22 22 23 24 26 32 43 63 97 95 108 89 66 56 56 35 31 41 21 31 38 49 13 73 125 205 279 290 263 248 318 306 323 264 278 285 276 266 275 298 282 268 263 256
23 23 23 24 24 26 27 30 32 42 58 80 80 92 95 30 43 64 21 39 38 25 70 56 11 5 328 299 300 286 281 271 260 265 279 196 324 319 283 278 291 295 242 278 278 211 268
23 24 24 26 27 29 32 34 37 38 44 84 87 80 79 33 63 56 49 70 43 24 11 18 15 11 313 317 312 303 289 295 278 347 202 200 306 231 279 236 247 242 8 322 319 280 3
24 24 24 26 28 30 33 35 38 44 43 49 88 103 86 75 98 75 58 44 20 11 360 4 359 343 334 337 19 7 351 9 327 30 196 16 3 290 290 248 281 324 16 341 346 301 301
24 24 24 25 26 29 31 33 35 40 51 46 61 87 108 121 353 65 65 40 29 344 342 335 357 12 15 41 53 41 331 313 325 321 286 339 254 254 255 249 272 21 338 325 305 255 358
23 23 23 24 23 23 25 30 34 37 46 45 50 73 103 109 78 58 49 29 41 16 299 316 350 1 16 17 53 33 311 322 305 305 312 317 322 277 295 273 288 359 332 320 227 312 319
21 21 20 20 20 21 24 31 36 38 55 39 32 55 98 103 92 44 47 35 21 0 110 321 17 10 16 45 42 343 319 300 325 269 282 298 333 316 313 317 330 333 333 322 283 305 303
17 17 16 17 18 21 28 33 37 42 64 46 44 84 90 88 88 72 49 41 21 25 14 25 101 333 82 74 43 337 311 332 318 291 320 342 135 304 294 283 294 310 307 305 304 292 299